This demonstration page uses our WeatherBlox Daily Observations layout. Learn more.

Left ArrowRight Arrow

30.21309, -93.2044

Hourly Observations for June 13, 2019

Temp ( °F °C ) Dew Point ( °F °C ) Humidity (%) Winds ( mph kmh ) Pressure ( in mb ) Visibility ( mi km ) Precip ( " mm )
12:10 am 00:10 Clear 73 22.8 67 19.3 81 81 Calm 30.01 1016 10 16 0.00 0.00
12:35 am 00:35 Clear 74 23.3 67 19.7 80 80 SW 3 6 30.00 1016 10 16 0.00 0.00
12:55 am 00:55 Clear 76 24.2 67 19.6 76 76 Calm 30.00 1016 10 16 0.00 0.00
1:15 am 01:15 Clear 76 24.2 68 19.8 77 77 Calm 30.00 1016 10 16 0.00 0.00
1:35 am 01:35 Clear 73 22.8 67 19.5 82 82 NNW 3 6 30.00 1016 10 16 0.00 0.00
2:15 am 02:15 Clear 70 21 67 19.5 91 91 E 3 6 30.00 1016 10 16 0.00 0.00
2:35 am 02:35 Clear 69 20.7 67 19.5 93 93 E 9 15 30.00 1016 10 16 0.00 0.00
2:55 am 02:55 Clear 69 20.7 67 19.5 93 93 ESE 3 6 30.00 1016 10 16 0.00 0.00
3:15 am 03:15 Clear 70 21.1 67 19.7 92 92 Calm 30.00 1016 10 16 0.00 0.00
3:35 am 03:35 Clear 70 21 67 19.5 91 91 Calm 30.01 1016 10 16 0.00 0.00
3:55 am 03:55 Clear 70 21 67 19.7 92 92 NNE 8 13 30.00 1016 10 16 0.00 0.00
4:15 am 04:15 Clear 70 21.1 68 19.8 92 92 Calm 30.00 1016 10 16 0.00 0.00
4:35 am 04:35 Clear 70 21 67 19.7 92 92 Calm 30.00 1016 10 16 0.00 0.00
4:55 am 04:55 Clear 69 20.7 67 19.5 93 93 NNE 3 6 30.01 1016 10 16 0.00 0.00
5:15 am 05:15 Clear 70 21.3 67 19.6 90 90 Calm 30.01 1016 10 16 0.00 0.00
5:35 am 05:35 Clear 70 21.1 67 19.3 90 90 Calm 30.02 1017 10 16 0.00 0.00
6:00 am 06:00 Mostly Clear 70 21 66 19 88 88 Calm 30.02 1017 10 16 0.00 0.00
6:50 am 06:50 Mostly Sunny 70 21 66 19 88 88 N 5 7 30.03 1017 10 16 0.00 0.00
7:50 am 07:50 Mostly Sunny 75 24 66 19 74 74 Calm 30.05 1018 10 16 0.00 0.00
8:50 am 08:50 Mostly Sunny 79 26 66 19 65 65 NNE 12 19 30.06 1018 10 16 0.00 0.00
9:48 am 09:48 Mostly Sunny 81 27 66 19 62 62 ENE 8 13 30.07 1018 10 16 0.00 0.00
10:55 am 10:55 Mostly Sunny 82 28 68 20 62 62 NE 8 13 30.08 1019 10 16 0.00 0.00
11:45 am 11:45 Mostly Sunny 84 29 66 19 55 55 NNE 8 13 30.07 1018 10 16 0.00 0.00
12:52 pm 12:52 Partly Cloudy 86 30 66 19 52 52 N 8 13 30.07 1018 10 16 0.00 0.00
1:45 pm 13:45 Mostly Cloudy 84 29 63 17 48 48 NNW 13 20 30.06 1018 10 16 0.00 0.00
2:55 pm 14:55 Partly Cloudy 88 31 61 16 40 40 N 9 15 30.05 1018 10 16 0.00 0.00
3:55 pm 15:55 Partly Cloudy 90 32 59 15 36 36 N 6 9 30.03 1017 10 16 0.00 0.00
4:50 pm 16:50 Partly Cloudy 90 32 59 15 36 36 Calm 30.03 1017 10 16 0.00 0.00
5:50 pm 17:50 Partly Cloudy 86 30 59 15 40 40 NE 3 6 30.02 1017 10 16 0.00 0.00
6:50 pm 18:50 Partly Cloudy 86 30 63 17 46 46 NNE 10 17 30.02 1017 10 16 0.00 0.00
7:50 pm 19:50 Mostly Sunny 82 28 64 18 55 55 ENE 3 6 30.03 1017 10 16 0.00 0.00
8:55 pm 20:55 Mostly Clear 77 25 64 18 65 65 Calm 30.03 1017 10 16 0.00 0.00
9:50 pm 21:50 Mostly Clear 75 24 66 19 74 74 Calm 30.04 1017 10 16 0.00 0.00
10:15 pm 22:15 Clear 73 23 66 18.8 77 77 Calm 30.05 1018 10 16 0.00 0.00
10:35 pm 22:35 Clear 73 23 65 18.6 76 76 E 3 6 30.06 1018 10 16 0.00 0.00
10:55 pm 22:55 Clear 72 22.2 66 18.8 81 81 E 7 11 30.06 1018 10 16 0.00 0.00
11:15 pm 23:15 Clear 72 22 66 18.8 82 82 E 10 17 30.06 1018 10 16 0.00 0.00
11:35 pm 23:35 Clear 73 22.5 66 18.8 80 80 E 3 6 30.06 1018 10 16 0.00 0.00
11:55 pm 23:55 Clear 72 22.1 66 19 83 83 Calm 30.06 1018 10 16 0.00 0.00

Powered by AerisWeather